User: anonymous   Login
Location: Hepcat Sky Observatory
(29.9800°N, 95.6500°W)
Time: 18:05:33
(UTC-05:00)
Language:

Cosmos 1602 Rocket - Orbit

View from above orbital plane
View from above orbital plane
View from above satellite
View from above satellite

Ground track
Ground track

The orbit data is extracted from the following two-line orbital elements,

1 15332U 84105B   14295.69977115  .00000702  00000-0  83665-4 0  7920
2 15332 082.5372 013.1335 0020149 325.9637 145.7689 14.82824548623030
Epoch (UTC): 22 October 2014 16:47:40
Eccentricity: 0.0020149
inclination: 82.5372°
perigee height: 606 km
apogee height: 634 km
right ascension of ascending node: 13.1335°
argument of perigee: 325.9637°
revolutions per day: 14.82824548
mean anomaly at epoch: 145.7689°
orbit number at epoch: 62303

The dashed part of the orbit path shows where the satellite is in the earth's shadow,  

DLR